Location: *
(23.4719°N, 126.9111°E)
Time: 10:32:59
(UTC+00:00)

Daily predictions for brighter satellites

Satellite Brightness Start Highest point End
(mag) Time Altitude Azimuth Time Altitude Azimuth Time Altitude Azimuth
NOSS 3-4 (A) 4.4 12:04:35 10° NNW 12:10:40 47° NE 12:10:40 47° NE
NOSS 3-4 (C) 4.4 12:04:42 10° NNW 12:10:45 46° NE 12:10:45 46° NE
ATLAS 2AS CENTAUR R/B 3.5 12:36:42 10° NNW 12:41:31 45° NNW 12:41:31 45° NNW
ATLAS 3B R/B 3.0 18:44:14 58° NNE 18:44:14 58° NNE 18:49:26 10° NNE
IDEFIX/ARIANE 42P 4.2 18:39:05 10° NNE 18:41:33 29° NNE 18:41:33 29° NNE
SL-16 R/B 3.9 18:50:51 10° N 18:55:50 31° ENE 19:00:47 10° SE
CZ-2C R/B 3.9 18:56:36 10° NE 19:00:32 29° E 19:01:33 26° ESE
Skynet4D Del rocket 3.9 19:07:12 83° SW 19:07:17 83° SSW 19:14:46 10° ESE
ADEOS 4.4 19:03:00 10° NNE 19:08:00 46° E 19:09:28 37° SE
Cosmos 1674 Rocket 4.3 19:14:02 52° ENE 19:14:02 52° ENE 19:17:50 10° NNE
Palapa 6 Rocket 4.3 19:16:17 31° E 19:16:17 31° E 19:18:34 10° E
PAYLOAD A 4.4 19:11:45 10° NNE 19:17:01 63° ESE 19:18:17 47° SSE
CZ-4B R/B 3.5 19:18:55 25° NNE 19:18:55 25° NNE 19:20:44 10° N
Cosmos 1092 Rocket 4.4 19:12:54 18° SSE 19:17:34 61° E 19:23:47 10° NNE
Cosmos 2263 Rocket 2.4 19:18:07 48° SSE 19:19:31 66° ESE 19:25:08 10° NNE
Cosmos 494 Rocket 4.2 19:26:08 10° N 19:31:22 71° ENE 19:36:35 10° SSE
EPKM 3.0 19:32:29 41° ESE 19:32:29 41° ESE 19:34:03 10° E
Nadezhda 4 Rocket 4.0 19:31:02 54° WSW 19:31:40 56° W 19:37:52 10° N
Cosmos 1867 3.8 19:33:37 48° NW 19:33:37 48° NW 19:38:41 10° NNE
CENTAUR R/B 4.2 19:37:27 14° NW 19:37:27 14° NW 19:40:14 10° NNW
Timation 1 Rocket 4.3 19:39:12 47° SW 19:40:46 64° WNW 19:46:44 10° NNE
Gblst 52 Del rocket 4.3 19:43:20 47° WSW 19:43:34 47° SW 19:48:49 10° SSE
Cosmos 1300 Rocket 3.4 19:41:44 10° NNW 19:46:01 68° W 19:47:03 48° SSW
Cosmos 1269 Rocket 4.2 19:45:23 10° N 19:50:41 74° ENE 19:55:58 10° SSE
Cosmos 1378 Rocket 3.4 19:51:19 47° SW 19:52:17 62° W 19:56:35 10° N
Okean 2 Rocket 3.6 19:50:17 10° NNW 19:53:54 38° WNW 19:53:54 38° WNW
Cosmos 2151 Rocket 3.4 19:51:35 10° NNW 19:55:55 63° W 20:00:15 10° S
Cosmos 1437 Rocket 3.1 19:52:12 10° S 19:56:09 67° E 20:00:13 10° NNE
OE (NEXTSAT) 4.2 20:04:08 45° WNW 20:04:58 62° SW 20:08:24 10° SE
ATLAS 5 CENTAUR R/B 3.8 20:04:27 25° W 20:05:46 27° WNW 20:09:02 10° N
Cosmos 1689 Rocket 1.9 20:05:50 10° S 20:08:49 71° W 20:11:48 10° NNW
STARLINK-1150 4.1 20:11:11 16° SSW 20:13:47 47° SE 20:17:14 10° NE
SWIFT 2.7 20:13:21 28° WSW 20:15:17 50° S 20:19:25 10° ESE
STARLINK-1170 3.8 20:15:09 15° SSW 20:18:01 57° SE 20:21:39 10° NE
Shenzhou-11 Module 4.2 20:19:22 10° NNW 20:19:31 10° NNW 20:19:56 10° NNW
Meteor 1-31 Rocket 2.9 20:17:55 10° N 20:21:44 52° WNW 20:25:30 10° SSW
BREEZE-M DEB (TANK) 1.2 20:20:12 19° SW 20:22:19 90° WSW 20:24:35 10° NE
ALOS 2.6 20:17:49 10° NNE 20:22:28 69° E 20:27:06 10° S
EPKM 3.6 20:17:24 17° WSW 20:24:26 62° S 20:27:14 10° E
Cosmos 967 Rocket 4.4 20:19:07 10° NNW 20:25:29 69° WSW 20:31:45 10° SSE
Lacrosse 4 Rocket 3.7 20:22:18 10° SSE 20:25:53 26° ESE 20:29:32 10° NE
STARLINK-1179 2.7 20:24:53 19° SW 20:26:58 82° NW 20:30:04 10° NE
FENGYUN 3A 3.8 20:21:57 10° NNE 20:27:20 77° ESE 20:32:41 10° S
STARLINK-1176 2.7 20:25:18 19° SW 20:27:24 81° NW 20:30:31 10° NE
Lacrosse 5 2.5 20:24:20 10° SSW 20:29:17 58° ESE 20:34:15 10° NE
STARLINK-1173 2.7 20:27:41 16° SW 20:30:00 82° NW 20:33:06 10° NE
STARLINK-1136 2.7 20:28:06 16° SW 20:30:26 81° NW 20:33:32 10° NE
STARLINK-1132 3.2 20:29:21 12° SW 20:32:41 88° SE 20:36:17 10° NE
PSLV R/B 4.3 20:29:18 10° NNE 20:33:19 64° ESE 20:37:15 10° S
Meteor PRIRODA 3.5 20:30:10 10° N 20:33:49 73° WNW 20:37:29 10° SSW
ATLAS 3B R/B 4.4 20:32:08 10° WNW 20:34:06 11° NW 20:36:03 10° NNW
H-2A R/B 2.4 20:30:40 10° N 20:34:31 54° WNW 20:38:15 10° SSW
STARLINK-1151 3.1 20:31:33 11° SW 20:34:53 85° SE 20:38:20 10° NE
Cosmos 1975 Rocket 3.0 20:31:06 10° SSW 20:35:21 61° W 20:39:40 10° N
STARLINK-1177 3.2 20:32:23 11° SW 20:35:50 84° NW 20:39:26 10° NE
STARLINK-1133 3.1 20:32:55 10° SW 20:36:19 89° ESE 20:39:47 10° NE
STARLINK-1183 2.7 20:34:10 12° SW 20:36:58 79° NW 20:40:04 10° NE
STARLINK-1181 2.8 20:34:37 12° SW 20:37:26 78° NW 20:40:32 10° NE
STARLINK-1139 3.1 20:34:19 10° SW 20:37:46 87° NW 20:41:13 10° NE
STARLINK-1196 2.8 20:35:02 12° SW 20:37:53 77° NW 20:40:58 10° NE
STARLINK-1149 3.3 20:34:21 10° SW 20:38:00 77° NW 20:41:42 10° NE
STARLINK-1186 2.8 20:35:28 12° SW 20:38:18 75° NW 20:41:23 10° NE
CZ-2C R/B 3.8 20:35:37 10° NNW 20:38:30 17° WNW 20:40:57 12° WSW
STARLINK-1167 3.2 20:34:58 10° SW 20:38:32 77° NW 20:42:08 10° NE
STARLINK-1185 2.8 20:35:53 11° SW 20:38:46 74° NW 20:41:51 10° NE
STARLINK-1175 2.8 20:36:20 11° SW 20:39:11 73° NW 20:42:16 10° NE
STARLINK-1174 3.1 20:35:47 10° SW 20:39:15 83° NW 20:42:42 10° NE
SL-16 R/B 3.2 20:35:19 10° NW 20:39:39 23° WSW 20:43:57 10° SSW
STARLINK-1147 2.8 20:36:46 11° SW 20:39:40 72° NW 20:42:45 10° NE
STARLINK-1146 2.8 20:37:11 11° SW 20:40:06 70° NW 20:43:11 10° NE
Okean 2 3.5 20:36:14 10° SSW 20:40:15 51° W 20:44:15 10° N
STARLINK-1152 2.8 20:37:38 11° SW 20:40:34 69° NW 20:43:40 10° NNE
STARLINK-1195 2.8 20:38:05 11° SW 20:41:00 68° NW 20:44:04 10° NNE
STARLINK-1137 2.8 20:38:30 11° SW 20:41:28 67° NW 20:44:33 10° NNE
Okean 1 Rocket 3.4 20:37:25 10° NNW 20:41:33 41° W 20:45:41 10° SSW
Cosmos 1844 Rocket 3.2 20:36:10 10° S 20:41:42 66° ESE 20:47:18 10° NNE
STARLINK-1142 2.8 20:38:56 11° SW 20:41:54 66° NW 20:44:58 10° NNE
BREEZE-M DEB (TANK) 3.1 20:38:11 10° NW 20:42:01 65° SW 20:49:22 10° SSE
STARLINK-1180 3.1 20:38:48 10° SW 20:42:15 75° NW 20:45:43 10° NE
STARLINK-1127 2.8 20:39:21 10° SW 20:42:22 64° NW 20:45:27 10° NNE
STARLINK-1184 2.9 20:39:48 10° SW 20:42:49 63° NW 20:45:53 10° NNE
STARLINK-1193 2.9 20:40:14 10° SW 20:43:15 62° NW 20:46:18 10° NNE
STARLINK-1194 2.9 20:40:39 10° SW 20:43:43 61° NW 20:46:47 10° NNE
STARLINK-1153 3.1 20:40:21 10° SW 20:43:48 72° NW 20:47:15 10° NE
SJ-12 3.8 20:40:44 10° N 20:44:46 69° WNW 20:48:47 10° SSW
COSMO-SKYMED 1 3.6 20:43:27 10° SSE 20:47:40 53° ENE 20:51:53 10° N
STARLINK-1163 3.4 20:44:36 10° SW 20:48:10 56° NW 20:51:44 10° NNE
ASTRO E2 4.3 20:45:44 10° WSW 20:48:27 19° SSW 20:51:16 10° SSE
CRYOSAT 2 4.5 20:45:45 10° N 20:50:28 53° W 20:55:11 10° SSW
Cosmos 1766 3.2 20:47:50 10° N 20:51:41 89° W 20:55:32 10° S
PSLV R/B 4.4 20:47:58 10° S 20:51:54 39° W 20:55:50 10° NNW
Fermi 3.9 20:49:37 10° WSW 20:53:43 69° SSE 20:57:51 10° E
STARLINK-1168 3.5 20:51:30 10° SW 20:54:53 49° NW 20:58:16 10° NNE
ARIANE 5 R/B 4.4 20:50:37 10° SSW 20:55:05 20° SSE 21:08:50 10° ESE
SeaSat 1 2.4 20:51:06 10° SSE 20:55:59 73° WSW 21:00:54 10° NNW
STARLINK-1164 3.6 20:53:07 10° SW 20:56:29 46° NW 20:59:50 10° NNE
GP-B 3.6 20:53:09 10° N 20:57:34 67° E 21:01:57 10° S
GPS 2-14 Rocket1 3.1 20:53:44 10° WSW 20:57:44 55° S 21:01:39 10° E
STARLINK-1182 3.6 20:54:45 10° WSW 20:58:06 44° NW 21:01:27 10° NNE
USA 234 3.6 20:53:21 10° SE 20:59:51 73° NE 21:06:22 10° NW
Meteor 1-22 Rocket 4.5 20:54:42 10° N 21:00:34 87° E 21:06:36 10° S
Meteor 1-21 4.3 20:56:58 10° SSW 21:02:42 72° W 21:08:30 10° N
Cosmos 1603 3.7 20:57:12 10° NNW 21:02:46 67° WSW 21:08:21 10° S
